Вернуться в каталог

IRNSS 1F

АктивенНавигацияGEO
NORAD 41384·PAYLOAD·🇮🇳 India

Запущен Mar 10, 2016 с Satish Dhawan Space Centre

Loading…

TLE

СвежийSource: CelesTrak SupGP

Эпоха: Sep 13, 2026, 23:59 UTC

1 41384C 16015A   26256.99979167  .00000244  00000+0  00000+0 0  2565
2 41384   5.5669  94.7260 0019886 175.6205 115.0524  1.00276453    16

Отслеживайте IRNSS 1F в реальном времени с AllMySat

Download on the App Store